When you browse on this site, cookies collect data to enhance your experience and personalize the content and advertising you see.
Visit our Privacy Policy to learn more. By continuing to use the site, you agree to this use of cookies and data.

Météo par heure à Tykhonovychi

Ce jour, 16 Juillet, Jeudi

Heure Température Précipitation Vent Pression Humidité
00:00 +11°C° 0 mm 3 m/s 746 mmHg 83%
01:00 +11°C° 0 mm 3 m/s 746 mmHg 82%
02:00 +11°C° 0 mm 3 m/s 746 mmHg 82%
03:00 +10°C° 0 mm 3 m/s 746 mmHg 84%
04:00 +10°C° 0 mm 2 m/s 746 mmHg 85%
05:00 +10°C° 0 mm 2 m/s 746 mmHg 86%
06:00 +12°C° 0 mm 3 m/s 747 mmHg 82%
07:00 +14°C° 0 mm 3 m/s 747 mmHg 78%
08:00 +16°C° 0 mm 3 m/s 747 mmHg 75%
09:00 +18°C° 0 mm 3 m/s 747 mmHg 70%
10:00 +19°C° 0 mm 3 m/s 747 mmHg 64%
11:00 +21°C° 0 mm 3 m/s 747 mmHg 59%
12:00 +21°C° 0 mm 3 m/s 747 mmHg 57%
13:00 +22°C° 0 mm 3 m/s 747 mmHg 55%
14:00 +22°C° 0 mm 3 m/s 747 mmHg 53%
15:00 +23°C° 0 mm 2 m/s 747 mmHg 55%
16:00 +23°C° 0 mm 2 m/s 746 mmHg 57%
17:00 +23°C° 0 mm 2 m/s 746 mmHg 59%
18:00 +20°C° 0 mm 2 m/s 746 mmHg 64%
19:00 +19°C° 0 mm 1 m/s 746 mmHg 70%
20:00 +16°C° 0 mm 1 m/s 747 mmHg 76%
21:00 +16°C° 0 mm 1 m/s 747 mmHg 77%
22:00 +15°C° 0 mm 1 m/s 747 mmHg 79%
23:00 +14°C° 0 mm 1 m/s 747 mmHg 81%

Demain, 17 Juillet, Vendredi

Heure Température Précipitation Vent Pression Humidité
00:00 +14°C° 0 mm 1 m/s 747 mmHg 81%
01:00 +14°C° 0 mm 1 m/s 747 mmHg 82%
02:00 +13°C° 0 mm 1 m/s 747 mmHg 82%
03:00 +13°C° 0 mm 1 m/s 747 mmHg 82%
04:00 +14°C° 0 mm 1 m/s 747 mmHg 83%
05:00 +14°C° 0 mm 1 m/s 747 mmHg 83%
06:00 +16°C° 0 mm 1 m/s 747 mmHg 79%
07:00 +19°C° 0 mm 1 m/s 748 mmHg 75%
08:00 +20°C° 0 mm 1 m/s 748 mmHg 71%
09:00 +22°C° 0.3 mm 1 m/s 748 mmHg 68%
10:00 +23°C° 0.3 mm 1 m/s 748 mmHg 66%
11:00 +24°C° 0.3 mm 1 m/s 748 mmHg 64%
12:00 +24°C° 1.2 mm 2 m/s 748 mmHg 65%
13:00 +24°C° 1.2 mm 2 m/s 748 mmHg 67%
14:00 +25°C° 1.2 mm 2 m/s 748 mmHg 69%
15:00 +24°C° 1 mm 2 m/s 748 mmHg 71%
16:00 +24°C° 1 mm 2 m/s 748 mmHg 74%
17:00 +24°C° 1 mm 2 m/s 748 mmHg 76%
18:00 +22°C° 0.1 mm 1 m/s 748 mmHg 79%
19:00 +21°C° 0.1 mm 1 m/s 748 mmHg 82%
20:00 +20°C° 0.1 mm 1 m/s 748 mmHg 85%
21:00 +19°C° 0 mm 1 m/s 748 mmHg 86%
22:00 +18°C° 0 mm 1 m/s 749 mmHg 86%
23:00 +18°C° 0 mm 1 m/s 749 mmHg 87%

Après-demain, 18 Juillet, Samedi

Heure Température Précipitation Vent Pression Humidité
00:00 +16°C° 0 mm 1 m/s 749 mmHg 88%
01:00 +16°C° 0 mm 1 m/s 749 mmHg 88%
02:00 +15°C° 0 mm 0 m/s 749 mmHg 89%
03:00 +15°C° 0 mm 0 m/s 749 mmHg 89%
04:00 +15°C° 0 mm 0 m/s 750 mmHg 89%
05:00 +15°C° 0 mm 0 m/s 750 mmHg 89%
06:00 +17°C° 0 mm 0 m/s 750 mmHg 84%
07:00 +18°C° 0 mm 0 m/s 750 mmHg 80%
08:00 +20°C° 0 mm 0 m/s 750 mmHg 76%
09:00 +23°C° 0.5 mm 1 m/s 750 mmHg 72%
10:00 +24°C° 0.5 mm 1 m/s 750 mmHg 69%
11:00 +25°C° 0.5 mm 1 m/s 750 mmHg 66%
12:00 +25°C° 1.3 mm 1 m/s 750 mmHg 66%
13:00 +25°C° 1.3 mm 1 m/s 750 mmHg 67%
14:00 +25°C° 1.3 mm 1 m/s 750 mmHg 67%
15:00 +25°C° 0.8 mm 1 m/s 750 mmHg 70%
16:00 +25°C° 0.8 mm 1 m/s 750 mmHg 73%
17:00 +25°C° 0.8 mm 1 m/s 750 mmHg 76%
18:00 +23°C° 0 mm 2 m/s 750 mmHg 79%
19:00 +21°C° 0 mm 2 m/s 750 mmHg 82%
20:00 +20°C° 0 mm 2 m/s 750 mmHg 84%
21:00 +19°C° 0 mm 2 m/s 750 mmHg 85%
22:00 +18°C° 0 mm 2 m/s 750 mmHg 85%
23:00 +18°C° 0 mm 2 m/s 750 mmHg 85%

19 Juillet, Dimanche

Heure Température Précipitation Vent Pression Humidité
00:00 +17°C° 0 mm 2 m/s 750 mmHg 86%
01:00 +17°C° 0 mm 2 m/s 750 mmHg 86%
02:00 +16°C° 0 mm 2 m/s 750 mmHg 86%
03:00 +16°C° 0 mm 2 m/s 750 mmHg 88%
04:00 +16°C° 0 mm 2 m/s 750 mmHg 89%
05:00 +15°C° 0 mm 2 m/s 750 mmHg 90%
06:00 +17°C° 0 mm 2 m/s 750 mmHg 86%
07:00 +19°C° 0 mm 2 m/s 750 mmHg 82%
08:00 +21°C° 0 mm 2 m/s 750 mmHg 78%
09:00 +23°C° 0 mm 2 m/s 750 mmHg 73%
10:00 +24°C° 0 mm 2 m/s 750 mmHg 68%
11:00 +25°C° 0 mm 2 m/s 750 mmHg 63%
12:00 +25°C° 0.1 mm 2 m/s 750 mmHg 62%
13:00 +26°C° 0.1 mm 2 m/s 749 mmHg 61%
14:00 +26°C° 0.1 mm 3 m/s 749 mmHg 60%
15:00 +26°C° 0.2 mm 2 m/s 749 mmHg 64%
16:00 +25°C° 0.2 mm 2 m/s 749 mmHg 67%
17:00 +25°C° 0.2 mm 2 m/s 748 mmHg 71%
18:00 +23°C° 0.1 mm 1 m/s 748 mmHg 75%
19:00 +21°C° 0.1 mm 1 m/s 748 mmHg 80%
20:00 +20°C° 0.1 mm 1 m/s 748 mmHg 84%
21:00 +19°C° 0 mm 1 m/s 748 mmHg 85%
22:00 +19°C° 0 mm 1 m/s 748 mmHg 86%
23:00 +18°C° 0 mm 1 m/s 748 mmHg 87%

20 Juillet, Lundi

Heure Température Précipitation Vent Pression Humidité
00:00 +18°C° 0 mm 1 m/s 748 mmHg 87%
01:00 +16°C° 0 mm 1 m/s 748 mmHg 88%
02:00 +16°C° 0 mm 1 m/s 748 mmHg 88%
03:00 +16°C° 0 mm 1 m/s 748 mmHg 88%
04:00 +16°C° 0 mm 1 m/s 747 mmHg 88%
05:00 +16°C° 0 mm 1 m/s 747 mmHg 88%
06:00 +19°C° 0 mm 1 m/s 747 mmHg 83%
07:00 +20°C° 0 mm 1 m/s 747 mmHg 79%
08:00 +22°C° 0 mm 1 m/s 747 mmHg 74%
09:00 +23°C° 0 mm 1 m/s 747 mmHg 70%
10:00 +24°C° 0 mm 1 m/s 747 mmHg 66%
11:00 +25°C° 0 mm 2 m/s 746 mmHg 62%
12:00 +25°C° 0 mm 1 m/s 746 mmHg 60%
13:00 +26°C° 0 mm 1 m/s 746 mmHg 58%
14:00 +26°C° 0 mm 1 m/s 746 mmHg 56%
15:00 +26°C° 0 mm 1 m/s 745 mmHg 58%
16:00 +26°C° 0 mm 1 m/s 745 mmHg 60%
17:00 +26°C° 0 mm 1 m/s 745 mmHg 61%
18:00 +24°C° 0 mm 1 m/s 745 mmHg 65%
19:00 +23°C° 0 mm 1 m/s 744 mmHg 68%
20:00 +21°C° 0 mm 1 m/s 744 mmHg 72%
21:00 +20°C° 0 mm 1 m/s 744 mmHg 73%
22:00 +20°C° 0 mm 1 m/s 744 mmHg 74%
23:00 +19°C° 0 mm 1 m/s 744 mmHg 75%

21 Juillet, Mardi

Heure Température Précipitation Vent Pression Humidité
00:00 +19°C° 0 mm 1 m/s 744 mmHg 76%
01:00 +18°C° 0 mm 1 m/s 743 mmHg 77%
02:00 +18°C° 0 mm 1 m/s 743 mmHg 78%
03:00 +18°C° 0 mm 1 m/s 743 mmHg 79%
04:00 +18°C° 0 mm 1 m/s 743 mmHg 80%
05:00 +18°C° 0 mm 1 m/s 743 mmHg 81%
06:00 +20°C° 0 mm 1 m/s 743 mmHg 77%
07:00 +21°C° 0 mm 1 m/s 743 mmHg 73%
08:00 +23°C° 0 mm 2 m/s 743 mmHg 69%
09:00 +24°C° 0 mm 2 m/s 742 mmHg 66%
10:00 +25°C° 0 mm 2 m/s 742 mmHg 62%
11:00 +26°C° 0 mm 3 m/s 742 mmHg 59%
12:00 +26°C° 0.1 mm 3 m/s 742 mmHg 58%
13:00 +27°C° 0.1 mm 3 m/s 742 mmHg 58%
14:00 +27°C° 0.1 mm 3 m/s 741 mmHg 57%
15:00 +27°C° 0.2 mm 3 m/s 741 mmHg 61%
16:00 +26°C° 0.2 mm 3 m/s 741 mmHg 64%
17:00 +26°C° 0.2 mm 3 m/s 741 mmHg 68%
18:00 +24°C° 0.2 mm 3 m/s 741 mmHg 73%
19:00 +21°C° 0.2 mm 2 m/s 741 mmHg 78%
20:00 +20°C° 0.2 mm 2 m/s 741 mmHg 83%
21:00 +19°C° 0 mm 2 m/s 741 mmHg 85%
22:00 +18°C° 0 mm 2 m/s 741 mmHg 87%
23:00 +18°C° 0 mm 2 m/s 742 mmHg 89%
Voir plus